Location: Rumah Dana
(3.1167°N, 113.0167°E)
Time: 13:21:15
(UTC+00:00)

Cosmos 1125 Rocket - Pass Details

Date: 03 August 2024
Orbit: 756 x 776 km, 74.0° (Epoch: 08 September)

Event Time Altitude Azimuth Distance (km) Brightness Sun altitude
Rises 20:58:26 0° 353° (N) 3,196 6.9 -21.8°
Reaches altitude 10° 21:00:49 10° 355° (N) 2,272 6.1 -21.2°
Maximum altitude 21:05:55 67° 78° (ENE) 818 3.8 -20.0°
Drops below altitude 10° 21:11:03 10° 160° (SSE) 2,280 6.0 -18.8°
Sets 21:13:25 0° 162° (SSE) 3,207 6.7 -18.2°
